Other Public Products
Issued by NWS Grand Forks, ND

Home | Current Version | Previous Version | Text Only | Print | Product List | Glossary On
Versions: 1 2 3 4 5 6 7 8 9 10 11 12 13 14 15 16 17 18 19 20 21 22 23 24 25 26 27 28 29 30 31 32 33 34 35 36 37 38 39 40 41 42 43 44 45 46 47 48 49 50
000
FPUS83 KFGF 260510
OPUFGF
PRAIRIE TO PINES WEATHER ROUNDUP
NATIONAL WEATHER SERVICE EASTERN NORTH DAKOTA/GRAND FORKS ND
1200 AM CDT TUE JUL 26 2016

 **SATELLITE DATA USED TO AUGMENT SKY COVER AT AUTOMATED STATIONS**
 *****  WEATHER ACROSS EASTERN NORTH DAKOTA  *****

CITY           SKY/WX    TMP DP  RH WIND       PRES   REMARKS
GRAND FORKS    CLEAR     76  66  71 NE13      29.91R
GRAND FORKS AF PTCLDY    74  67  77 NE7       29.93R
GRAND CITY NWS   N/A     73 N/A N/A NE6         N/A
BUXTON           N/A     75  73  93 SE5         N/A
DEVILS LAKE    CLEAR     71  67  87 NE6       29.97R
FARGO          MOCLDY    77  66  68 S8        29.92R
WAHPETON ARPT  CLEAR     70  63  78 SE8       29.95S
$$

 *****  WEATHER ACROSS CENTRAL AND WESTERN NORTH DAKOTA  *****

CITY           SKY/WX    TMP DP  RH WIND       PRES   REMARKS
JAMESTOWN      CLOUDY    73  68  84 CALM      29.92S
BISMARCK       PTCLDY    74  68  81 NE9       29.95R
MINOT          CLEAR     69  64  84 NW5       29.98R
MINOT AFB      CLEAR     63  60  90 NE1       29.97S
GARRISON         N/A     70  68  93 NE5       29.99R
WILLISTON      CLEAR     71  59  65 N6        30.00R
DICKINSON      PTCLDY    66  60  81 E7        29.99S
HETTINGER      MOCLDY    74  51  44 NW7       29.98F
$$

 *****  OTHER OBSERVATIONS NORTHEAST NORTH DAKOTA  *****

CITY           SKY/WX    TMP DP  RH WIND       PRES   REMARKS
WALHALLA       NOT AVBL
LANGDON        FAIR      66  66 100 E5        29.99R
CAVALIER       FAIR      68  66  94 SW3       29.95R
GRAFTON        FAIR      70  70 100 N5        29.95R
CANDO          NOT AVBL
FORT TOTTEN      N/A     73  68  83 NE3       29.95S
ROLLA          FAIR      64  64 100 NW5       30.01R
RUGBY          NOT AVBL
 ***** THE ABOVE OBSERVATIONS ARE NON NWS ARE NOT QUALITY
        CONTROLLED AND MAY MIS-REPORT RAIN FOR SNOW...
$$

 *****  OTHER OBSERVATIONS SOUTHEAST NORTH DAKOTA *****

CITY           SKY/WX    TMP DP  RH WIND       PRES   REMARKS
COOPERSTOWN    NOT AVBL
VALLEY CITY      N/A     70  70 100 S7        29.94F
OAKES            N/A    N/A N/A N/A MISG        N/A
GWINNER        FAIR      73  63  68 S13       29.95R
SHEYENNE NWR     N/A     69  62  78 S7        29.95S
BUFFALO          N/A     73  61  67 S6          N/A
WYNDMERE       NOT AVBL
 ***** THE ABOVE OBSERVATIONS ARE NON NWS ARE NOT QUALITY
       CONTROLLED AND MAY MIS-REPORT RAIN FOR SNOW...
$$

  *****  WEATHER ACROSS NORTHERN MINNESOTA  *****

CITY           SKY/WX    TMP DP  RH WIND       PRES   REMARKS
FLAG ISLAND    CLEAR     73  63  68 CALM      29.95R
WARROAD        CLOUDY    64  61  88 CALM      29.97S
ROSEAU         CLOUDY    66  61  82 N3        29.96S
HALLOCK        PTCLDY    72  66  83 E3        29.94S
THF RVR FALLS  CLOUDY    73  67  81 N7        29.96R
HALSTAD        NOT AVBL
FOSSTON        PTCLDY    72  64  78 S6        29.95F
BAUDETTE       CLOUDY    64  63  96 CALM      29.96S
WASKISH        CLOUDY    66  64  94 CALM      29.97S
CROOKSTON      PTCLDY    73  68  83 NE3       29.94R
$$
  *****  WEATHER ACROSS CENTRAL AND WEST MINNESOTA  *****

CITY           SKY/WX    TMP DP  RH WIND       PRES   REMARKS
BEMIDJI        PTCLDY    70  64  83 SE3       29.98S
PARK RAPIDS    PTCLDY    73  66  78 S8        29.99S
WADENA         NOT AVBL
DETROIT LAKES  CLEAR     73  64  73 S7        29.99R
MOORHEAD       PTCLDY    73  66  78 S8        29.93S
FERGUS FALLS   CLEAR     72  64  78 S9        29.98S
ELBOW LAKE     FAIR      70  64  81 S12       29.99S
MORRIS MN      CLEAR     70  64  83 S7        30.00R
STAPLES        PTCLDY    70  64  83 S6        30.00S
WHEATON        NOT AVBL
$$
  *****  WEATHER ELSEWHERE ACROSS MINNESOTA  *****

CITY           SKY/WX    TMP DP  RH WIND       PRES   REMARKS
DULUTH         CLEAR     68  63  84 W7        30.01S
INTRNTL FALLS  CLOUDY    60  58  92 CALM      29.97R
ELY            CLEAR     64  61  88 CALM      29.99S
CLOQUET        CLEAR     72  61  68 SW5       30.01S
BRAINERD       CLEAR     71  66  84 S7        30.01S
HIBBING        CLEAR     60  60 100 CALM      30.00S
ALEXANDRIA     PTCLDY    75  63  66 S10       30.03R
SAINT CLOUD    CLEAR     70  67  90 S5        30.03R
MINNEAPOLIS    CLEAR     78  64  61 SW3       30.04R
$$

  *****  WEATHER ACROSS SOUTH DAKOTA  *****

CITY           SKY/WX    TMP DP  RH WIND       PRES   REMARKS
SIOUX FALLS    PTCLDY    72  63  73 S8        30.08R
BROOKINGS      CLOUDY    70  63  78 S7        30.07S
WATERTOWN      CLEAR     74  63  68 S12       30.04S
HURON          CLOUDY    76  57  51 S10       30.01S
SISSETON         N/A     76  62  62 S10       29.95S
ABERDEEN       CLEAR     73  59  61 S10       29.97R
MITCHELL       CLOUDY    75  61  61 S7        30.04F
PIERRE         CLOUDY    79  56  45 S13       29.98S
MOBRIDGE       MOCLDY    79  58  48 SE6       29.92F
RAPID CITY     CLEAR     70  57  63 SE6       30.03R
$$

  *****  SOME WEATHER IN NEARBY STATES *****

CITY           SKY/WX    TMP DP  RH WIND       PRES   REMARKS
GLASGOW MT     CLEAR     73  59  61 NE17      29.99S
GREAT FALLS MT CLOUDY    68  47  46 W7        30.07F
CHEYENNE WY    CLEAR     68  59  73 SE14      30.22R
SCOTTSBLUFF NE CLEAR     75  61  61 SE12      30.10R
OMAHA NE       CLEAR     75  66  73 SE6       30.08F
DES MOINES IA  CLEAR     75  64  68 CALM      30.08S
DAVENPORT IA   CLEAR     66  64  93 NW3       30.06R
CHICAGO IL     CLOUDY    74  65  73 CALM      30.02S
EAU CLAIRE WI  CLEAR     69  65  86 CALM      30.04R
LA CROSSE WI   CLEAR     71  66  84 SE6       30.05R
$$

  *****  SOME NATIONAL WEATHER *****

CITY           SKY/WX    TMP DP  RH WIND       PRES   REMARKS
LA GUARDIA NY  PTCLDY    77  71  82 W8        29.86F
RALEIGH NC     PTCLDY    82  73  74 SW14      30.00S
ATLANTA GA     MOCLDY    78  74  87 NW3       30.08S
NEW ORLEANS LA PTCLDY    82  76  81 CALM      29.92F
OKLAHOMA CITY  TSTM      74  73  97 E12       30.02R
ALBUQUERQUE NM CLOUDY    79  53  40 NE9       30.23S
SALT LAKE CITY PTCLDY    88  36  15 SE14      30.01R
LOS ANGELES CA CLOUDY    70  65  84 W10       29.92R
BOISE ID       CLEAR     84  37  18 CALM      29.91R
SEATTLE WA     PTCLDY    69  62  78 NW6       30.07R
$$

*** WEATHER ACROSS MANITOBA...SASKATCHEWAN AND ONTARIO ***
                ***ONTARIO***

CITY           SKY/WX    TMP DP  RH WIND       PRES   REMARKS
GERALDTON      CLEAR     63  59  88 W6        29.87R
THUNDER BAY    CLEAR     63  59  88 W3        29.92R
SIOUX LOOKOUT  CLEAR     70  59  68 W6        29.91S
TORONTO        CLEAR     72  59  64 NW14      29.91S
BIG TROUT LK   PTCLDY    61  59  94 W12G18    29.72R
PICKLE LAKE    NOT AVBL
DRYDEN         CLEAR     66  61  82 SW7       29.94R
KENORA         CLEAR     72  59  64 W7        29.96R
$$
                *** MANITOBA***

CITY           SKY/WX    TMP DP  RH WIND       PRES   REMARKS
BRANDON        PTCLDY    66  63  88 N3        29.97S
DAUPHIN        CLEAR     63  59  88 W6        29.98R
ISLAND LAKE    PTCLDY    66  55  68 W10       29.82R
PILOT MOUND      N/A     64  61  88 N5          N/A
THE PAS        CLEAR     64  54  68 W9        29.96R
THOMPSON       LGT RAIN  59  50  72 NW14G28   29.86R
WINNIPEG       CLEAR     70  63  78 SW6       29.93S
LYNN LAKE      CLOUDY    55  45  67 MISG      29.97R
CHURCHILL      LGT RAIN  48  48 100 E13       29.75R
GILLAM         CLOUDY    63  57  82 NW15G24   29.71F
$$
                ***SASKATCHEWAN***

CITY           SKY/WX    TMP DP  RH WIND       PRES   REMARKS
ESTEVAN        CLEAR     66  63  88 VRB3      30.01R
KINDERSLEY     PTCLDY    61  55  82 E8        30.09R
LLOYDMINSTER   CLEAR     59  50  72 S2        30.08S
PRINCE ALBERT  NOT AVBL
REGINA         NOT AVBL
YORKTON        CLEAR     61  55  82 NW7       30.03R  C1F1C2F2C3F3C4F4C5F5C6F6C7F7C8F8C9F9CaFaCbFbCcFcCdFdCe!



USA.gov is the U.S. government's official web portal to all federal, state and local government web resources and services.